Location: Carri�res
(48.9069°N, 2.1792°E)
Time: 17:28:26
(UTC+00:00)

Tiangong - Visible Passes

Search period start: 24 September 2021 00:00
Search period end: 04 October 2021 00:00
Orbit: 382 x 385 km, 41.5° (Epoch: 24 September)

Date Brightness Start Highest point End Pass type
(mag) Time Alt. Az. Time Alt. Az. Time Alt. Az.
27 Sep 3.9 04:37:04 10° S 04:37:54 11° SSE 04:38:46 10° SE visible
28 Sep 3.3 05:12:04 10° SSW 05:14:18 18° SSE 05:16:32 10° ESE visible
29 Sep 3.4 04:13:38 13° S 04:14:36 15° SSE 04:16:26 10° SE visible
30 Sep 3.0 04:48:49 11° SW 04:51:03 20° S 04:53:28 10° SE visible
01 Oct 3.3 03:51:47 17° SSE 03:51:47 17° SSE 03:53:31 10° ESE visible
02 Oct 2.8 04:26:55 19° SSW 04:27:45 21° S 04:30:14 10° SE visible
03 Oct 3.9 03:29:53 13° SE 03:29:53 13° SE 03:30:25 10° SE visible
03 Oct 3.1 05:02:05 11° SW 05:04:13 18° S 05:06:28 10° SE visible
